When you browse on this site, cookies collect data to enhance your experience and personalize the content and advertising you see.
Visit our Privacy Policy to learn more. By continuing to use the site, you agree to this use of cookies and data.
  • In Romania
  • List of Countries
  • For 7 days
  • Water Temperature
  • Satellite Maps
  • Weather Map
  • Weather Widgets
  • user-avatar
    Login

    Hourly Weather Rogatyy Prud

    Today, 19 March, Tuesday

    Time Temperature Precipitation Wind Pressure Humidity
    00:00 -3°C° 0 mm 2 mps 755 mmHg 92%
    01:00 -3°C° 0 mm 2 mps 755 mmHg 93%
    02:00 -3°C° 0 mm 2 mps 755 mmHg 93%
    03:00 -3°C° 0 mm 2 mps 755 mmHg 94%
    04:00 -3°C° 0 mm 2 mps 755 mmHg 94%
    05:00 -4°C° 0 mm 2 mps 755 mmHg 94%
    06:00 -5°C° 0 mm 3 mps 755 mmHg 94%
    07:00 -4°C° 0 mm 3 mps 755 mmHg 94%
    08:00 -2°C° 0 mm 3 mps 755 mmHg 94%
    09:00 -1°C° 0 mm 3 mps 756 mmHg 93%
    10:00 0°C° 0 mm 3 mps 756 mmHg 94%
    11:00 +1°C° 0 mm 3 mps 756 mmHg 95%
    12:00 +1°C° 0 mm 3 mps 756 mmHg 96%
    13:00 +2°C° 0 mm 3 mps 756 mmHg 94%
    14:00 +3°C° 0 mm 3 mps 755 mmHg 91%
    15:00 +3°C° 0 mm 3 mps 755 mmHg 88%
    16:00 +3°C° 0 mm 3 mps 755 mmHg 88%
    17:00 +2°C° 0 mm 3 mps 755 mmHg 89%
    18:00 +1°C° 0 mm 3 mps 755 mmHg 89%
    19:00 +1°C° 0 mm 3 mps 755 mmHg 89%
    20:00 0°C° 0 mm 3 mps 755 mmHg 89%
    21:00 0°C° 0 mm 3 mps 755 mmHg 88%
    22:00 0°C° 0 mm 3 mps 755 mmHg 89%
    23:00 -1°C° 0 mm 3 mps 755 mmHg 89%

    Tomorrow, 20 March, Wednesday

    Time Temperature Precipitation Wind Pressure Humidity
    00:00 -1°C° 0 mm 3 mps 755 mmHg 90%
    01:00 -1°C° 0 mm 3 mps 755 mmHg 90%
    02:00 -1°C° 0 mm 3 mps 755 mmHg 90%
    03:00 -1°C° 0 mm 3 mps 755 mmHg 90%
    04:00 -1°C° 0 mm 3 mps 754 mmHg 90%
    05:00 -1°C° 0 mm 3 mps 754 mmHg 90%
    06:00 -1°C° 0 mm 3 mps 754 mmHg 90%
    07:00 0°C° 0 mm 3 mps 754 mmHg 88%
    08:00 +1°C° 0 mm 3 mps 754 mmHg 86%
    09:00 +2°C° 0 mm 3 mps 754 mmHg 84%
    10:00 +3°C° 0 mm 3 mps 754 mmHg 82%
    11:00 +4°C° 0 mm 3 mps 753 mmHg 79%
    12:00 +7°C° 0 mm 3 mps 753 mmHg 76%
    13:00 +7°C° 0 mm 3 mps 753 mmHg 76%
    14:00 +8°C° 0 mm 3 mps 753 mmHg 76%
    15:00 +9°C° 0 mm 3 mps 752 mmHg 75%
    16:00 +7°C° 0 mm 3 mps 752 mmHg 80%
    17:00 +5°C° 0 mm 3 mps 752 mmHg 85%
    18:00 +4°C° 0 mm 2 mps 752 mmHg 90%
    19:00 +3°C° 0.1 mm 2 mps 752 mmHg 92%
    20:00 +3°C° 0.1 mm 2 mps 752 mmHg 94%
    21:00 +2°C° 0.1 mm 2 mps 752 mmHg 95%
    22:00 +2°C° 0.1 mm 2 mps 752 mmHg 95%
    23:00 0°C° 0.1 mm 3 mps 752 mmHg 95%

    Day after tomorrow, 21 March, Thursday

    Time Temperature Precipitation Wind Pressure Humidity
    00:00 0°C° 0.1 mm 3 mps 752 mmHg 95%
    01:00 -1°C° 0 mm 3 mps 752 mmHg 95%
    02:00 -1°C° 0 mm 3 mps 752 mmHg 95%
    03:00 -2°C° 0 mm 3 mps 752 mmHg 95%
    04:00 -2°C° 0 mm 2 mps 751 mmHg 95%
    05:00 -3°C° 0 mm 2 mps 751 mmHg 95%
    06:00 -3°C° 0 mm 2 mps 751 mmHg 95%
    07:00 -2°C° 0 mm 2 mps 751 mmHg 90%
    08:00 -1°C° 0 mm 2 mps 751 mmHg 86%
    09:00 +1°C° 0 mm 2 mps 751 mmHg 82%
    10:00 +2°C° 0 mm 2 mps 751 mmHg 76%
    11:00 +3°C° 0 mm 2 mps 751 mmHg 71%
    12:00 +4°C° 0 mm 2 mps 750 mmHg 65%
    13:00 +4°C° 0 mm 2 mps 750 mmHg 65%
    14:00 +4°C° 0 mm 2 mps 750 mmHg 66%
    15:00 +4°C° 0 mm 2 mps 750 mmHg 66%
    16:00 +4°C° 0 mm 1 mps 750 mmHg 70%
    17:00 +4°C° 0 mm 1 mps 749 mmHg 73%
    18:00 +3°C° 0 mm 1 mps 749 mmHg 76%
    19:00 +3°C° 0 mm 1 mps 749 mmHg 78%
    20:00 +2°C° 0 mm 1 mps 750 mmHg 80%
    21:00 +2°C° 0 mm 1 mps 750 mmHg 82%
    22:00 -1°C° 0 mm 2 mps 750 mmHg 85%
    23:00 -1°C° 0 mm 2 mps 750 mmHg 87%

    22 March, Friday

    Time Temperature Precipitation Wind Pressure Humidity
    00:00 -2°C° 0 mm 2 mps 750 mmHg 89%
    01:00 -2°C° 0 mm 2 mps 750 mmHg 91%
    02:00 -2°C° 0 mm 2 mps 750 mmHg 92%
    03:00 -2°C° 0 mm 2 mps 750 mmHg 93%
    04:00 0°C° 0 mm 1 mps 750 mmHg 93%
    05:00 0°C° 0 mm 1 mps 751 mmHg 93%
    06:00 0°C° 0 mm 1 mps 751 mmHg 93%
    07:00 +1°C° 0 mm 1 mps 751 mmHg 87%
    08:00 +1°C° 0 mm 1 mps 751 mmHg 81%
    09:00 +2°C° 0 mm 1 mps 752 mmHg 75%
    10:00 +3°C° 0 mm 1 mps 752 mmHg 70%
    11:00 +4°C° 0 mm 1 mps 752 mmHg 64%
    12:00 +5°C° 0 mm 1 mps 752 mmHg 58%
    13:00 +5°C° 0 mm 1 mps 752 mmHg 58%
    14:00 +6°C° 0 mm 1 mps 751 mmHg 57%
    15:00 +6°C° 0 mm 1 mps 751 mmHg 56%
    16:00 +6°C° 0 mm 1 mps 751 mmHg 59%
    17:00 +4°C° 0 mm 2 mps 751 mmHg 62%
    18:00 +4°C° 0 mm 2 mps 751 mmHg 65%
    19:00 +3°C° 0 mm 2 mps 751 mmHg 69%
    20:00 +2°C° 0 mm 2 mps 751 mmHg 72%
    21:00 +1°C° 0 mm 2 mps 751 mmHg 76%
    22:00 0°C° 0 mm 3 mps 750 mmHg 77%
    23:00 0°C° 0 mm 3 mps 749 mmHg 78%

    23 March, Saturday

    Time Temperature Precipitation Wind Pressure Humidity
    00:00 -1°C° 0 mm 4 mps 749 mmHg 79%
    01:00 -1°C° 0 mm 5 mps 748 mmHg 79%
    02:00 -2°C° 0 mm 6 mps 747 mmHg 79%
    03:00 -2°C° 0 mm 6 mps 746 mmHg 78%
    04:00 -2°C° 0.5 mm 7 mps 745 mmHg 81%
    05:00 -1°C° 0.5 mm 7 mps 745 mmHg 84%
    06:00 -1°C° 0.5 mm 7 mps 744 mmHg 87%
    07:00 -1°C° 0.4 mm 7 mps 744 mmHg 87%
    08:00 +1°C° 0.4 mm 6 mps 744 mmHg 87%
    09:00 +2°C° 0.4 mm 5 mps 744 mmHg 87%
    10:00 +2°C° 0 mm 6 mps 744 mmHg 80%
    11:00 +2°C° 0 mm 6 mps 744 mmHg 74%
    12:00 +2°C° 0 mm 6 mps 744 mmHg 67%
    13:00 +2°C° 0 mm 6 mps 744 mmHg 66%
    14:00 +2°C° 0 mm 6 mps 744 mmHg 65%
    15:00 +2°C° 0 mm 6 mps 744 mmHg 64%
    16:00 +1°C° 0 mm 6 mps 744 mmHg 66%
    17:00 +1°C° 0 mm 5 mps 744 mmHg 67%
    18:00 +1°C° 0 mm 5 mps 744 mmHg 69%
    19:00 0°C° 0 mm 5 mps 744 mmHg 71%
    20:00 0°C° 0 mm 5 mps 744 mmHg 73%
    21:00 -1°C° 0 mm 4 mps 744 mmHg 75%
    22:00 -1°C° 0 mm 4 mps 744 mmHg 76%
    23:00 -1°C° 0 mm 4 mps 743 mmHg 77%

    24 March, Sunday

    Time Temperature Precipitation Wind Pressure Humidity
    00:00 0°C° 0 mm 3 mps 743 mmHg 78%
    01:00 0°C° 0.1 mm 3 mps 742 mmHg 79%
    02:00 -1°C° 0.1 mm 4 mps 742 mmHg 81%
    03:00 -1°C° 0.1 mm 4 mps 742 mmHg 82%
    04:00 -1°C° 0.1 mm 4 mps 742 mmHg 85%
    05:00 -1°C° 0.1 mm 4 mps 741 mmHg 88%
    06:00 0°C° 0.1 mm 3 mps 741 mmHg 90%
    07:00 -1°C° 0.1 mm 4 mps 741 mmHg 88%
    08:00 -1°C° 0.1 mm 4 mps 742 mmHg 86%
    09:00 0°C° 0.1 mm 5 mps 742 mmHg 84%
    10:00 +1°C° 0 mm 5 mps 742 mmHg 79%
    11:00 +1°C° 0 mm 5 mps 743 mmHg 73%
    12:00 +2°C° 0 mm 6 mps 743 mmHg 68%
    13:00 +2°C° 0 mm 6 mps 743 mmHg 66%
    14:00 +2°C° 0 mm 6 mps 743 mmHg 65%
    15:00 +2°C° 0 mm 6 mps 744 mmHg 63%
    16:00 +2°C° 0 mm 5 mps 744 mmHg 65%
    17:00 +1°C° 0 mm 5 mps 744 mmHg 67%
    18:00 +1°C° 0 mm 4 mps 744 mmHg 69%
    19:00 +1°C° 0 mm 4 mps 744 mmHg 71%
    20:00 +1°C° 0 mm 3 mps 744 mmHg 74%
    21:00 +1°C° 0 mm 3 mps 744 mmHg 76%
    22:00 +1°C° 0 mm 3 mps 744 mmHg 76%
    23:00 0°C° 0 mm 3 mps 744 mmHg 77%
    Show more